Tampa Macdill AFB, FL

7:39 PM EST on December 15, 2019 (GMT -0500)
MacDill Air Force Base

Weather History for KMCF - August, 2019

Change the Weather History Date:

Monday, August 26, 2019

  Actual Average Record
Temperature  
Mean Temperature 84 °F -  
Max Temperature 91 °F 88 °F 95 °F (2015)
Min Temperature 78 °F 73 °F 73 °F (1996)
Cooling Degree Days 20    
Growing Degree Days 34 (Base 50)    
Moisture  
Dew Point 76 °F    
Average Humidity 81    
Maximum Humidity 89    
Minimum Humidity 61    
Precipitation  
Precipitation 0.00 in - - ()
Sea Level Pressure  
Sea Level Pressure 29.96 in    
Wind  
Wind Speed 9 mph (ESE)    
Max Wind Speed 15 mph    
Max Gust Speed -    
Visibility 10 miles    
Events Rain , Thunderstorm    
Averages and records for this station are not official NWS values.
T = Trace of Precipitation, MM = Missing Value Source: NWS Daily Summary

Daily Weather History Graph

Daily Weather History Graph

Search for Another Location

Airport or City:

Astronomy

Aug. 26, 2019 Rise Set
Actual Time 7:05 AM EDT 7:57 PM EDT
Civil Twilight 6:41 AM EDT 8:21 PM EDT
Nautical Twilight 6:13 AM EDT 8:49 PM EDT
Astronomical Twilight 5:44 AM EDT 9:18 PM EDT
Moon 2:47 AM EDT (8/26) 5:01 PM EDT (8/26)
Length of Visible Light 13h 39m
Length of Day
12h 51m
Waning Crescent, 19% of the Moon is Illuminated
Aug 26
Waning Crescent
Aug 30
New
Sep 5
First Quarter
Sep 14
Full
Sep 21
Last Quarter

Hourly Weather History & Observations

Time (EDT) Temp. Heat Index Dew Point Humidity Pressure Visibility Wind Dir Wind Speed Gust Speed Precip Events Conditions
12:26 AM 80.6 °F 87.1 °F 77.0 °F 89% 29.97 in 10.0 mi ESE 8.1 mph - N/A   Overcast
12:36 AM 80.6 °F 86.2 °F 75.2 °F 84% 29.97 in 10.0 mi ESE 10.4 mph - N/A   Overcast
12:56 AM 81.3 °F 88.0 °F 75.9 °F 84% 29.97 in 10.0 mi ESE 10.4 mph - 0.00 in   Overcast
1:05 AM 80.6 °F 86.2 °F 75.2 °F 84% 29.96 in 10.0 mi East 11.5 mph - N/A Rain Light Rain
1:09 AM 80.6 °F 86.2 °F 75.2 °F 84% 29.96 in 10.0 mi East 15.0 mph - N/A Rain , Thunderstorm Light Thunderstorms and Rain
1:15 AM 82.4 °F 89.5 °F 75.2 °F 79% 29.96 in 10.0 mi ESE 13.8 mph - N/A Thunderstorm Thunderstorm
1:24 AM 82.4 °F 89.5 °F 75.2 °F 79% 29.96 in 10.0 mi ESE 11.5 mph - N/A   Overcast
1:56 AM 81.0 °F 87.3 °F 75.9 °F 85% 29.95 in 10.0 mi ESE 12.7 mph - 0.00 in   Scattered Clouds
2:56 AM 80.4 °F 86.1 °F 75.7 °F 86% 29.94 in 10.0 mi East 9.2 mph - N/A   Clear
3:56 AM 79.9 °F - 75.2 °F 86% 29.93 in 10.0 mi ESE 11.5 mph - N/A   Clear
4:56 AM 79.3 °F - 75.4 °F 88% 29.94 in 10.0 mi East 8.1 mph - N/A   Partly Cloudy
5:56 AM 79.2 °F - 75.6 °F 89% 29.94 in 10.0 mi ESE 10.4 mph - N/A   Clear
6:55 AM 78.8 °F - 75.2 °F 89% 29.95 in 10.0 mi ESE 9.2 mph - N/A Rain Light Rain
6:56 AM 79.0 °F - 75.4 °F 89% 29.95 in 10.0 mi ESE 9.2 mph - 0.00 in Rain Light Rain
7:04 AM 78.8 °F - 75.2 °F 89% 29.95 in 10.0 mi ESE 10.4 mph - N/A   Mostly Cloudy
7:56 AM 79.7 °F - 76.1 °F 89% 29.97 in 10.0 mi East 8.1 mph - 0.00 in   Clear
8:22 AM 80.6 °F 87.1 °F 77.0 °F 89% 29.97 in 10.0 mi ESE 5.8 mph - N/A   Partly Cloudy
8:56 AM 82.4 °F 90.6 °F 76.6 °F 83% 29.98 in 10.0 mi ESE 6.9 mph - N/A   Clear
9:56 AM 84.6 °F 94.3 °F 76.5 °F 77% 29.99 in 10.0 mi SSE 9.2 mph - N/A   Clear
10:56 AM 86.2 °F 96.9 °F 76.5 °F 73% 30.00 in 10.0 mi SSE 8.1 mph - N/A   Clear
11:56 AM 87.4 °F 99.2 °F 76.8 °F 71% 29.99 in 10.0 mi South 5.8 mph - N/A   Clear
12:56 PM 88.3 °F 100.6 °F 77.2 °F 69% 29.98 in 10.0 mi SSW 3.5 mph - N/A   Clear
1:56 PM 91.2 °F 103.3 °F 76.3 °F 61% 29.96 in 10.0 mi South 6.9 mph - N/A Thunderstorm Partly Cloudy
2:56 PM 91.4 °F 105.1 °F 77.4 °F 63% 29.94 in 10.0 mi SSW 10.4 mph - N/A Thunderstorm Partly Cloudy
3:08 PM 91.4 °F 105.1 °F 77.0 °F 63% 29.94 in 10.0 mi SW 8.1 mph - N/A Thunderstorm Thunderstorm
3:29 PM 87.8 °F 99.7 °F 77.0 °F 70% 29.94 in 10.0 mi WSW 8.1 mph - N/A Thunderstorm Partly Cloudy
3:56 PM 85.8 °F 93.8 °F 74.3 °F 68% 29.91 in 10.0 mi SW 9.2 mph - N/A   Partly Cloudy
3:57 PM 86.0 °F 93.4 °F 73.4 °F 66% 29.91 in 10.0 mi SW 9.2 mph - N/A Rain Light Rain
4:16 PM 86.0 °F 93.4 °F 73.4 °F 66% 29.92 in 10.0 mi WSW 6.9 mph - N/A   Scattered Clouds
4:56 PM 88.7 °F 100.4 °F 76.3 °F 67% 29.94 in 10.0 mi West 3.5 mph - 0.00 in   Partly Cloudy
5:36 PM 84.2 °F 94.1 °F 77.0 °F 79% 29.95 in 10.0 mi ENE 10.4 mph - N/A Thunderstorm Overcast
5:56 PM 83.1 °F 89.5 °F 73.6 °F 73% 29.95 in 10.0 mi East 11.5 mph - N/A Thunderstorm Thunderstorm
6:31 PM 80.6 °F 86.2 °F 75.2 °F 84% 29.96 in 10.0 mi East 9.2 mph - N/A Thunderstorm Thunderstorm
6:36 PM 80.6 °F 86.2 °F 75.2 °F 84% 29.95 in 10.0 mi East 9.2 mph - N/A Thunderstorm Thunderstorm
6:50 PM 80.6 °F 86.2 °F 75.2 °F 84% 29.95 in 10.0 mi ENE 6.9 mph - N/A   Partly Cloudy
6:56 PM 81.5 °F 87.6 °F 74.7 °F 80% 29.95 in 10.0 mi ENE 6.9 mph - N/A   Partly Cloudy
7:56 PM 81.1 °F 87.0 °F 74.7 °F 81% 29.96 in 10.0 mi NNE 3.5 mph - N/A   Scattered Clouds
8:02 PM 80.6 °F 86.2 °F 75.2 °F 84% 29.96 in 10.0 mi East 4.6 mph - N/A   Light Drizzle
8:16 PM 80.6 °F 86.2 °F 75.2 °F 84% 29.96 in 10.0 mi East 5.8 mph - N/A   Scattered Clouds
8:41 PM 80.6 °F 86.2 °F 75.2 °F 84% 29.97 in 10.0 mi ENE 4.6 mph - N/A   Mostly Cloudy
8:56 PM 80.2 °F 85.2 °F 74.5 °F 83% 29.98 in 10.0 mi ENE 8.1 mph - 0.00 in   Mostly Cloudy
9:11 PM 80.6 °F 86.2 °F 75.2 °F 84% 29.99 in 10.0 mi East 9.2 mph - N/A   Scattered Clouds
9:31 PM 80.6 °F 86.2 °F 75.2 °F 84% 29.99 in 10.0 mi East 6.9 mph - N/A   Scattered Clouds
9:56 PM 79.7 °F - 75.4 °F 87% 30.00 in 10.0 mi East 6.9 mph - N/A   Clear
10:56 PM 79.0 °F - 75.0 °F 88% 30.01 in 10.0 mi East 5.8 mph - N/A   Clear
11:29 PM 78.8 °F - 75.2 °F 89% 30.02 in 10.0 mi SE 3.5 mph - N/A Rain Light Rain
11:39 PM 78.8 °F - 75.2 °F 89% 30.01 in 10.0 mi SSE 3.5 mph - N/A   Clear
11:56 PM 78.6 °F - 75.0 °F 89% 30.01 in 10.0 mi ESE 4.6 mph - 0.00 in   Clear